Location: D?by Wolskie
(51.3045°N, 18.9355°E)
Time: 06:13:22
(UTC+00:00)

Daily predictions for brighter satellites

Satellite Brightness Start Highest point End
(mag) Time Altitude Azimuth Time Altitude Azimuth Time Altitude Azimuth
Cosmos 2278 Rocket 4.3 19:28:04 10° WSW 19:33:11 34° NW 19:38:21 10° NNE
USA 215 4.0 19:30:32 10° ENE 19:36:53 55° N 19:43:14 10° WNW
Cosmos 1503 Rocket 4.0 19:33:18 10° S 19:38:23 61° ESE 19:43:28 10° NNE
Cosmos 2369 Rocket 2.3 19:36:25 10° SSW 19:42:01 61° ESE 19:47:37 10° NE
ASTEX 1 3.7 19:42:24 10° NNE 19:47:09 50° E 19:51:51 10° SSE
Cosmos 1354 Rocket 4.2 19:42:48 10° S 19:47:52 53° ESE 19:52:57 10° NNE
Cosmos 2297 Rocket 4.0 19:46:34 10° NNW 19:50:56 22° NE 19:55:17 10° E
Cosmos 1340 Rocket 4.2 19:53:30 10° NNW 19:57:01 34° W 20:00:30 10° SSW
Ariane Rocket 3.0 19:53:11 10° SSE 19:58:13 73° ENE 20:03:16 10° NNW
SAR-Lupe-2 3.6 19:55:24 10° SSE 19:58:59 79° ENE 20:02:36 10° NNW
CZ-4C R/B 2.4 19:56:32 10° S 20:00:25 33° ESE 20:05:11 10° NE
Okean 2 Rocket 3.2 19:56:23 10° NNW 20:00:46 78° W 20:05:07 10° S
ISS -3.8 19:57:30 10° W 20:00:51 89° NNE 20:04:12 10° E
Cosmos 2098 Rocket 4.4 19:58:50 10° NNE 20:00:56 16° ENE 20:03:10 10° ESE
Cosmos 2263 4.2 19:57:36 10° SSW 20:03:12 66° ESE 20:08:47 10° NE
Cosmos 1869 3.9 19:59:45 10° NNW 20:03:13 48° W 20:06:38 10° S
Cosmos 2151 Rocket 4.2 20:03:06 10° NNW 20:07:32 55° W 20:11:55 10° S
Cosmos 1777 Rocket 4.2 20:03:02 10° SSW 20:08:15 77° WNW 20:13:29 10° NNE
BREEZE-M DEB (TANK) 3.3 20:07:08 10° SSW 20:09:32 26° SE 20:14:29 10° E
SOZ 4.3 20:08:34 10° WSW 20:10:54 51° SSE 20:13:18 10° E
Cosmos 44 3.4 20:08:09 10° SSW 20:12:12 41° ESE 20:16:22 10° NE
Nadezhda 4 Rocket 4.1 20:08:13 10° S 20:14:31 72° E 20:20:50 10° NNE
Okean 1 Rocket 3.2 20:10:34 10° NNW 20:14:56 72° W 20:19:15 10° S
Lacrosse 5 rocket 2.9 20:11:46 10° WNW 20:15:22 34° N 20:19:01 10° ENE
Helios 1A 3.6 20:12:53 10° N 20:16:45 53° WNW 20:20:35 10° SSW
Cosmos 1515 3.2 20:16:33 10° N 20:19:04 44° ENE 20:20:37 19° SE
Cosmos 1975 Rocket 4.0 20:16:28 14° SSE 20:19:33 31° E 20:23:21 10° NNE
Cosmos 2221 Rocket 3.7 20:17:01 10° SSW 20:21:31 80° W 20:26:06 10° N
Cosmos 2285 Rocket 4.2 20:16:40 10° S 20:22:50 54° ESE 20:29:05 10° NNE
Cosmos 2227 Rocket 4.3 20:19:24 10° NNW 20:23:33 20° NE 20:27:42 10° E
Cosmos 2228 4.0 20:20:02 10° N 20:23:52 32° ENE 20:26:50 15° SE
Gbstr 26 Del rocket 3.6 20:20:19 10° W 20:25:15 89° SSW 20:31:26 10° ESE
Terra 3.6 20:21:31 10° SSW 20:25:30 27° W 20:29:31 10° NW
Cosmos 1455 Rocket 3.0 20:22:14 10° N 20:26:34 75° ENE 20:30:04 15° SSE
Cosmos 1867 4.3 20:22:44 10° S 20:27:30 32° ESE 20:32:17 10° NE
SPOT 3 Rocket 4.0 20:23:44 10° S 20:28:51 60° WSW 20:34:02 10° NNW
Cosmos 2026 Rocket 4.1 20:27:47 12° SSE 20:33:17 56° E 20:39:12 10° NNE
Cosmos 1428 Rocket 4.5 20:33:41 10° S 20:39:51 86° E 20:46:06 10° N
Cosmos 1898 Rocket 4.0 20:36:10 14° S 20:40:17 42° ESE 20:45:14 10° NE
ATLAS 5 CENTAUR R/B 4.3 20:38:36 10° NNW 20:40:36 14° N 20:42:47 10° NNE
Cosmos 1538 Rocket 4.2 20:38:13 10° NNW 20:43:35 72° WSW 20:47:45 17° SSE
Cosmos 1553 Rocket 4.5 20:40:30 10° N 20:46:36 50° ENE 20:51:17 17° SE
USA 81 4.2 20:44:48 17° SSE 20:48:49 59° E 20:54:00 10° NNE
Cosmos 1812 3.6 20:48:25 10° NNW 20:51:19 33° W 20:53:43 13° SSW
PSLV R/B 4.4 20:49:20 15° SSW 20:51:36 37° W 20:54:33 10° NNW
Cosmos 1092 Rocket 4.0 20:50:30 13° S 20:56:09 75° E 21:02:28 10° NNE
ARIANE 5 R/B 3.6 20:53:15 17° SE 20:56:10 37° ENE 21:00:16 10° N
Cosmos 1900 4.3 20:52:40 10° SSW 20:57:38 68° SE 21:02:43 10° NE
ATLAS 2AS CENTAUR R/B 4.1 20:52:27 10° NW 20:58:40 35° NNE 21:04:47 10° E
BlueWalker 3 1.7 20:56:36 10° WNW 21:00:16 90° W 21:03:04 17° ESE
Cosmos 1025 Rocket 4.4 20:56:28 10° SW 21:00:31 38° WNW 21:04:36 10° N
Cosmos 1656 4.3 21:05:49 21° SSE 21:08:57 37° ESE 21:14:00 10° NE
DELTA 2 DEB (DPAF) 3.9 21:06:00 10° NNE 21:09:52 58° ESE 21:11:59 25° S
Aureole 1 Rocket 4.3 21:04:08 10° SSW 21:10:46 85° ESE 21:18:21 10° NNE
CZ-4C R/B 3.9 21:07:38 10° NNE 21:11:02 35° E 21:12:23 26° SE
Cosmos 2263 Rocket 4.2 21:06:57 10° NNW 21:11:21 22° NE 21:15:43 10° E
RESURS DK-1 2.4 21:11:00 10° NNW 21:15:00 71° ENE 21:17:10 26° SE
Cosmos 1544 Rocket 3.5 21:12:41 10° N 21:17:05 79° E 21:19:31 26° SSE
USA 215 3.5 21:13:02 10° ESE 21:19:32 72° NNE 21:26:04 10° WNW
Cosmos 372 Rocket 3.9 21:14:58 11° SSW 21:19:53 88° WNW 21:25:00 10° NNE
DNEPR-1 R/B 4.2 21:18:31 10° NW 21:22:30 41° WSW 21:24:33 25° S
Cosmos 2369 Rocket 4.0 21:21:20 10° WSW 21:26:24 32° NW 21:31:30 10° NNE
Cosmos 1400 Rocket 2.6 21:22:48 10° N 21:26:40 75° ENE 21:28:20 31° SSE
Cosmos 2058 3.8 21:25:46 25° SE 21:27:06 31° E 21:30:37 10° NNE
Cosmos 2112 Rocket 4.0 21:23:37 10° NNW 21:28:55 82° ENE 21:32:07 25° SSE
Cosmos 1782 3.3 21:30:07 10° N 21:33:40 43° ENE 21:35:07 28° SE
Cosmos 2297 Rocket 2.2 21:30:11 10° NNW 21:35:53 80° ENE 21:39:27 24° SE
ISS -3.2 21:34:17 10° W 21:37:25 37° SSW 21:37:42 36° SSW
Cosmos 1937 Rocket 3.4 21:34:18 17° SSW 21:38:16 88° ESE 21:43:26 10° NNE
Cosmos 2098 Rocket 3.5 21:36:07 10° NNW 21:39:06 37° W 21:40:46 23° SSW
Cosmos 1680 Rocket 3.6 21:34:18 10° NNW 21:39:33 73° WSW 21:42:31 27° S
Cosmos 1862 4.5 21:43:53 22° ESE 21:44:45 25° E 21:47:46 10° NE
ALOS 2 2.8 21:44:36 28° SE 21:46:47 63° ENE 21:51:09 10° N
Cosmos 1980 Rocket 4.0 21:46:39 13° ESE 21:48:21 14° E 21:51:12 10° ENE
CZ-4C R/B 2.8 21:43:49 10° WSW 21:48:21 53° NW 21:54:13 10° NE
Cosmos 858 Rocket 4.4 21:48:12 21° SSW 21:51:43 86° ESE 21:56:56 10° NNE
Cosmos 1697 Rocket 3.6 21:50:21 24° SE 21:52:30 31° ESE 21:57:27 10° NE
Lacrosse 5 rocket 1.9 21:49:26 10° WNW 21:53:18 54° NNE 21:57:10 10° E
Cosmos 2360 4.4 21:51:09 25° S 21:54:18 56° ESE 21:59:52 10° NE
MetOp-A 3.4 21:55:24 34° S 21:56:51 61° WSW 22:00:37 10° NNW
Cosmos 1356 Rocket 4.4 21:54:09 10° N 21:57:53 35° ENE 21:59:46 23° ESE
Cosmos 2228 4.4 21:57:12 10° NNW 22:00:51 29° W 22:03:10 18° SW
Cosmos 2227 Rocket 2.4 22:02:57 10° NNW 22:08:40 70° ENE 22:12:21 22° SE
GEOS 3 Rocket 4.2 22:03:49 10° NE 22:08:46 40° ESE 22:10:45 29° SSE
Cosmos 1867 4.1 22:05:25 10° WSW 22:10:49 61° NW 22:16:15 10° NE
EO 1 Delta rocket 4.4 22:09:00 26° SE 22:11:27 55° ENE 22:16:35 10° N
Cosmos 1441 Rocket 4.3 22:11:11 24° ESE 22:11:44 25° E 22:14:38 10° NE
Gbstr 26 Del rocket 4.0 22:06:31 10° WNW 22:11:45 49° SSW 22:15:20 24° SSE
Cosmos 494 Rocket 4.1 22:07:00 10° NNW 22:12:12 65° WSW 22:14:39 30° S
NOSS 7 (A) 4.4 22:11:55 10° NW 22:14:46 66° SW 22:15:01 62° SSW
BREEZE-M DEB (TANK) 2.4 22:12:37 10° W 22:18:33 67° S 22:19:47 31° ESE
CZ-2C R/B 4.3 22:16:00 10° N 22:20:37 54° WNW 22:23:39 20° SW
Cosmos 1048 Rocket 4.0 22:15:54 10° NNW 22:21:18 88° WSW 22:24:05 30° SSE
Cosmos 2266 Rocket 4.1 22:19:20 25° SSW 22:23:23 83° W 22:29:50 10° N
Spot 4 4.3 22:21:20 28° SSW 22:23:33 50° W 22:28:15 10° NNW
ATLAS 5 CENTAUR R/B 3.9 22:21:32 10° NNW 22:24:43 22° NNE 22:28:25 10° ENE
Landsat 5 3.4 22:24:34 10° N 22:28:21 67° WNW 22:29:50 34° SW
Cosmos-2242 3.8 22:27:26 10° N 22:31:28 41° ENE 22:33:26 25° SE
ARIANE 5 R/B 3.9 22:30:39 22° SW 22:32:33 30° W 22:36:28 10° NNW
Cosmos 2315 Rocket 4.1 22:26:17 10° NNW 22:32:41 80° W 22:36:19 28° S
Cosmos 1315 Rocket 2.8 22:33:40 10° N 22:37:31 69° ENE 22:38:48 39° SSE
BlueWalker 3 3.1 22:34:32 10° W 22:36:56 25° WSW 22:36:56 25° WSW
Cosmos 1933 3.3 22:42:44 10° NNW 22:46:36 65° W 22:47:44 41° SSW
ATLAS 2AS CENTAUR R/B 2.7 22:43:40 10° NW 22:50:31 80° NE 22:57:03 11° SE
RESURS DK-1 4.3 22:49:41 10° WNW 22:51:57 15° WSW 22:52:29 14° WSW
CZ-2C R/B 4.2 22:50:31 10° NE 22:54:36 28° E 22:56:42 20° SE
Cosmos 2221 4.3 22:51:15 10° NNE 22:54:46 24° ENE 22:57:43 13° ESE
USA 290 3.1 22:52:16 10° NNW 22:55:28 46° ENE 22:56:40 30° ESE
Cosmos 2263 Rocket 2.2 22:50:27 10° NNW 22:56:09 82° ENE 22:59:46 23° SE
H-2A R/B 3.9 22:56:06 15° ESE 22:58:33 29° ENE 23:01:59 10° N
USA 215 3.3 22:58:07 20° SSE 23:02:45 56° SW 23:09:10 10° WNW
Cosmos 2058 4.4 23:01:15 17° WSW 23:03:20 27° WNW 23:06:44 10° N
Cosmos 2082 4.0 22:59:20 10° NNW 23:05:01 65° ENE 23:09:36 16° SE
Cosmos 1602 4.3 23:07:46 30° WSW 23:08:35 36° WNW 23:11:36 10° N
Cosmos 1932 4.4 23:08:26 25° SSW 23:12:15 76° SE 23:18:40 10° NE
Cosmos 1655 Rocket 4.3 23:09:38 24° SSW 23:13:34 64° WNW 23:19:54 10° N
Nadezhda 1 Rocket 4.3 23:09:50 10° N 23:16:00 60° ENE 23:20:18 20° SSE
Cosmos 2297 Rocket 3.8 23:15:14 10° NW 23:19:16 20° W 23:21:13 17° SW
SL-16 R/B 4.1 23:17:31 12° SE 23:20:31 18° E 23:24:09 10° ENE
Cosmos 2219 3.1 23:15:29 10° NNW 23:21:13 82° WSW 23:24:45 24° SSE
Cosmos 2058 Rocket 3.5 23:18:01 10° NNW 23:22:19 49° W 23:23:59 32° SSW
Cosmos 2333 Rocket 4.4 23:23:13 10° ESE 23:25:19 12° E 23:27:24 10° ENE
Lacrosse 5 rocket 1.5 23:26:55 10° WNW 23:30:39 41° SW 23:31:05 40° SSW
Cosmos 1980 Rocket 2.2 23:28:23 29° SSW 23:31:23 77° ESE 23:37:01 10° NNE
Cosmos 1697 Rocket 3.2 23:32:03 18° SW 23:36:12 55° NW 23:41:48 10° NNE
Resurs 1-4 Rocket 4.5 23:34:38 10° ENE 23:36:59 13° E 23:39:18 10° ESE
CZ-4C R/B 4.4 23:33:24 10° WNW 23:37:58 28° N 23:43:37 10° NE
CZ-2C R/B 2.7 23:36:53 25° SSE 23:40:15 83° WSW 23:45:55 10° NNW
SeaSat 1 4.3 23:41:35 10° ESE 23:45:51 31° NE 23:50:08 10° NNW
GEOS 3 Rocket 4.2 23:41:45 10° NE 23:46:54 57° NW 23:51:47 12° WSW
Cosmos 1602 Rocket 3.6 23:45:39 30° S 23:47:40 68° E 23:52:00 10° NNE
IDEFIX/ARIANE 42P 3.8 23:43:10 10° NNE 23:47:48 32° E 23:51:12 16° SSE
Cosmos 1758 Rocket 3.5 23:47:54 32° SSW 23:49:56 82° WNW 23:54:24 10° N
Cosmos 1626 Rocket 3.7 23:49:13 31° SSW 23:51:13 65° WNW 23:55:37 10° N
Cosmos 1844 Rocket 3.4 23:46:04 10° NNW 23:51:36 53° NE 23:57:04 10° SE
Cosmos 2227 Rocket 3.5 23:47:44 10° NW 23:52:11 24° WSW 23:54:06 20° SW
CENTAUR R/B 3.9 23:49:44 15° SSE 23:52:52 24° ESE 23:57:58 10° ENE
CZ-2D R/B 4.3 23:50:28 10° NE 23:53:33 16° E 23:56:36 10° ESE
Geosat 4.1 23:49:11 10° NNE 23:54:11 72° NW 23:57:21 23° SW
